Flag for U.S.A. Weather past 2 weeks in Hollywood, California, U.S.A.

Now
63 °F

Clear.


Feels Like: 63 °F
Forecast: 46 / 58 °F
Wind: 3 mph from Southeast

Location: Van Nuys Airport

Current Time: Dec 24, 2014 at 6:19:47 PM

Latest Report: Dec 24, 2014 at 5:51 PM


Visibility: 10 mi

Pressure: 29.89 "Hg

Humidity: 41%

Dew point: 39 °F

Location of HollywoodLocation

Historic Weather in Hollywood — Graph

°F

Hollywood temperature yesterday

Maximum temperature yesterday: 80 °F (at 11:51 AM)
Minimum temperature yesterday: 59 °F (at 11:51 PM)
Average temperature yesterday: 71 °F

Past Weeks' High & Low Weather Summary

 TemperatureHumidityPressure
High80 °F (Dec 22, 1:51 PM)93% (Dec 11, 10:51 PM)30.23 "Hg (Dec 11, 10:51 PM)
Low41 °F (Dec 14, 6:51 AM)22% (Dec 23, 11:51 AM)29.79 "Hg (Dec 12, 2:58 AM)
Average58 °F67%30.04 "Hg
* Reported Dec 9 4:51 PM — Dec 24 4:51 PM, Hollywood, Weather by CustomWeather, © 2014

Note: Actual official high and low records may vary slightly from our data, if they occured in-between our weather recording intervals... More about our weather records

Advertising

Hollywood weather history for previous 24 hours

 ConditionsComfort  
Time TempWeatherWind HumidityBarometerVisibility
4:51 PM
Dec 24
63 °FClear.6 mph40%29.90 "Hg10 mi
3:51 PM66 °FSunny.7 mph39%29.91 "Hg10 mi
2:51 PM71 °FSunny.8 mph30%29.92 "Hg10 mi
1:51 PM71 °FSunny.8 mph32%29.92 "Hg10 mi
12:51 PM72 °FSunny.3 mph34%29.96 "Hg10 mi
11:51 AM70 °FSunny.No wind34%29.99 "Hg10 mi
10:51 AM67 °FBroken clouds.No wind36%30.03 "Hg10 mi
9:51 AM61 °FBroken clouds.No wind52%30.06 "Hg10 mi
8:51 AM57 °FSunny.No wind60%30.07 "Hg10 mi
7:51 AM52 °FSunny.No wind69%30.07 "Hg10 mi
6:51 AM49 °FClear.No wind74%30.08 "Hg10 mi
5:51 AM50 °FClear.No wind74%30.08 "Hg10 mi
4:51 AM51 °FClear.No wind71%30.07 "Hg10 mi
3:51 AM50 °FClear.No wind74%30.07 "Hg10 mi
2:51 AM53 °FClear.No wind66%30.08 "Hg10 mi
1:51 AM54 °FClear.No wind64%30.07 "Hg10 mi
12:51 AM57 °FClear.No wind55%30.06 "Hg10 mi
11:51 PM
Dec 23
59 °FClear.No wind51%30.07 "Hg10 mi
10:51 PM61 °FClear.No wind48%30.08 "Hg10 mi
9:51 PM68 °FClear.No wind32%30.08 "Hg10 mi
8:51 PM68 °FClear.9 mph33%30.07 "Hg10 mi
7:51 PM69 °FClear.13 mph33%30.05 "Hg10 mi
6:51 PM70 °FClear.13 mph32%30.04 "Hg10 mi
Weather by CustomWeather, © 2014

See weather overviewHow to use our weather pages